Flag for Germany Weather past 2 weeks in Hanau, Hesse, Germany

Now
52 °F

Light rain. Partly sunny.


Feels Like: 46 °F
Forecast: 41 / 45 °F
Wind: 20 mph from Southwest

Location: Frankfurt-M-Flughafen Airport

Current Time: Dec 19, 2014 at 2:13:39 PM

Latest Report: Dec 19, 2014 at 1:50 PM


Visibility: N/A

Pressure: 29.95 "Hg

Humidity: 88%

Dew point: 48 °F

Location of HanauLocation

Historic Weather in Hanau — Graph

°F

Hanau temperature yesterday

Maximum temperature yesterday: 57 °F (at 7:50 PM)
Minimum temperature yesterday: 45 °F (at 12:20 AM)
Average temperature yesterday: 50 °F

Past Weeks' High & Low Weather Summary

 TemperatureHumidityPressure
High57 °F (Dec 18, 7:50 PM)100% (Dec 6, 1:20 AM)30.42 "Hg (Dec 6, 1:20 AM)
Low28 °F (Dec 8, 10:20 PM)67% (Dec 12, 1:20 PM)29.59 "Hg (Dec 12, 6:20 PM)
Average41 °F90%30.01 "Hg
* Reported Dec 4 12:20 PM — Dec 19 12:50 PM, Hanau, Weather by CustomWeather, © 2014

Note: Actual official high and low records may vary slightly from our data, if they occured in-between our weather recording intervals... More about our weather records

Advertising

Hanau weather history for previous 24 hours

 ConditionsComfort  
Time TempWeatherWind HumidityBarometerVisibility
12:50 PM
Dec 19
52 °FLight rain. Partly sunny.21 mph82%29.95 "HgN/A
12:20 PM54 °FLight rain. Partly sunny.22 mph77%29.95 "HgN/A
11:50 AM52 °FScattered showers. Partly sunny.23 mph82%29.98 "HgN/A
11:20 AM52 °FScattered showers. Partly sunny.20 mph82%29.98 "HgN/A
10:50 AM52 °FPartly sunny.21 mph82%29.98 "HgN/A
10:20 AM52 °FPartly sunny.21 mph82%29.98 "HgN/A
9:50 AM52 °FPartly sunny.21 mph82%29.98 "HgN/A
9:20 AM52 °FBroken clouds.21 mph77%29.98 "HgN/A
8:50 AM52 °FPartly sunny.20 mph77%29.98 "HgN/A
8:20 AM52 °FPartly sunny.26 mph77%29.98 "HgN/A
7:50 AM54 °FPassing clouds.23 mph72%29.98 "HgN/A
7:20 AM52 °FLight rain. Partly cloudy.23 mph82%29.98 "HgN/A
6:50 AM54 °FPassing clouds.23 mph72%30.01 "HgN/A
6:20 AM54 °FPassing clouds.20 mph77%30.01 "HgN/A
5:50 AM54 °FPassing clouds.14 mph77%30.01 "HgN/A
5:20 AM52 °FPassing clouds.13 mph82%30.01 "HgN/A
4:20 AM54 °FPartly cloudy.18 mph77%30.01 "HgN/A
3:50 AM54 °FPartly cloudy.17 mph77%30.01 "HgN/A
3:20 AM54 °FPassing clouds.20 mph72%30.04 "HgN/A
2:50 AM54 °FPassing clouds.18 mph72%30.04 "HgN/A
2:20 AM54 °FPassing clouds.22 mph77%30.04 "HgN/A
1:50 AM54 °FPassing clouds.24 mph77%30.01 "HgN/A
1:20 AM54 °FPassing clouds.26 mph77%30.04 "HgN/A
12:50 AM54 °FPassing clouds.26 mph77%30.01 "HgN/A
12:20 AM54 °FPassing clouds.28 mph77%30.01 "HgN/A
11:50 PM
Dec 18
55 °FPassing clouds.18 mph77%30.01 "HgN/A
11:20 PM55 °FPassing clouds.16 mph77%30.01 "HgN/A
10:50 PM55 °FPassing clouds.14 mph77%30.01 "HgN/A
10:20 PM55 °FPassing clouds.18 mph72%30.01 "HgN/A
9:50 PM55 °FPassing clouds.20 mph72%30.01 "HgN/A
9:20 PM57 °FPassing clouds.23 mph77%29.98 "HgN/A
8:50 PM57 °FPassing clouds.21 mph77%29.98 "HgN/A
8:20 PM57 °FPassing clouds.16 mph82%29.98 "HgN/A
7:50 PM57 °FPassing clouds.15 mph82%29.98 "HgN/A
7:20 PM55 °FPassing clouds.12 mph88%29.95 "HgN/A
6:50 PM55 °FPassing clouds.14 mph88%29.95 "HgN/A
6:20 PM54 °FPassing clouds.13 mph94%29.95 "HgN/A
5:50 PM54 °FPassing clouds.14 mph94%29.95 "HgN/A
5:20 PM54 °FPartly cloudy.12 mph94%29.95 "HgN/A
4:20 PM52 °FDrizzle. Broken clouds.12 mph94%29.95 "HgN/A
3:50 PM52 °FBroken clouds.13 mph94%29.92 "HgN/A
3:20 PM52 °FDrizzle. Broken clouds.12 mph94%29.92 "Hg6 mi
2:50 PM52 °FPartly sunny.10 mph94%29.92 "HgN/A
2:20 PM50 °FDrizzle. Partly sunny.10 mph100%29.92 "HgN/A
Weather by CustomWeather, © 2014

See weather overviewHow to use our weather pages